Weather History for KELO - October, 2011

Change the Weather History Date:

Sunday, October 23, 2011

  Actual Average Record
Temperature  
Mean Temperature 44 °F -  
Max Temperature 48 °F 46 °F 69 °F (1998)
Min Temperature 41 °F 31 °F 24 °F (1997)
Degree Days  
Heating Degree Days 20    
Moisture  
Dew Point 39 °F    
Average Humidity 83    
Maximum Humidity 93    
Minimum Humidity 57    
Precipitation  
Precipitation 0.08 in - - ()
Sea Level Pressure  
Sea Level Pressure 29.75 in    
Wind  
Wind Speed 6 mph (SW)    
Max Wind Speed 12 mph    
Max Gust Speed 23 mph    
Visibility 10 miles    
Events Rain    
Averages and records for this station are not official NWS values.
T = Trace of Precipitation, MM = Missing Value Source: NWS Daily Summary

Daily Weather History Graph

Daily Weather History Graph

Search for Another Location

Airport or City:

Trip Planner

Search our weather history database for the weather conditions in past years. The results will help you decide how hot, cold, wet, or windy it might be!

Date:

Astronomy

Oct. 23, 2011 Rise Set
Actual Time 7:37 AM CDT 6:04 PM CDT
Civil Twilight 7:06 AM CDT 6:36 PM CDT
Nautical Twilight 6:30 AM CDT 7:12 PM CDT
Astronomical Twilight 5:54 AM CDT 7:48 PM CDT
Moon 3:30 AM CDT (10/23) 4:07 PM CDT (10/23)
Length of Visible Light 11h 30m
Length of Day
10h 26m
Waning Crescent, 14% of the Moon is Illuminated
Oct 23
Waning Crescent
Oct 26
New
Nov 2
First Quarter
Nov 10
Full
Nov 18
Last Quarter

Hourly Weather History & Observations

Time (CDT) Temp. Windchill Dew Point Humidity Pressure Visibility Wind Dir Wind Speed Gust Speed Precip Events Conditions
12:13 AM 41.0 °F 34.7 °F 28.4 °F 61% 29.84 in 10.0 mi SSE 10.4 mph - N/A   Mostly Cloudy
12:32 AM 42.8 °F 38.6 °F 28.4 °F 57% 29.83 in 10.0 mi South 6.9 mph - N/A   Overcast
12:52 AM 42.8 °F 38.6 °F 28.4 °F 57% 29.83 in 10.0 mi South 6.9 mph - N/A   Overcast
1:13 AM 42.8 °F 38.0 °F 28.4 °F 57% 29.81 in 10.0 mi SSE 8.1 mph - N/A   Mostly Cloudy
1:32 AM 42.8 °F 38.0 °F 30.2 °F 61% 29.81 in 10.0 mi South 8.1 mph - N/A   Mostly Cloudy
1:53 AM 44.6 °F 40.7 °F 30.2 °F 57% 29.81 in 10.0 mi South 6.9 mph - N/A   Overcast
2:13 AM 44.6 °F 40.7 °F 30.2 °F 57% 29.81 in 10.0 mi SSW 6.9 mph - N/A   Overcast
2:32 AM 44.6 °F 40.7 °F 32.0 °F 61% 29.83 in 10.0 mi WSW 6.9 mph - N/A Rain Light Rain
2:53 AM 44.6 °F 40.7 °F 32.0 °F 61% 29.82 in 10.0 mi SSW 6.9 mph - N/A Rain Rain
3:13 AM 41.0 °F - 35.6 °F 81% 29.81 in 5.0 mi Calm Calm - 0.03 in Rain Rain
3:33 AM 42.8 °F 36.6 °F 37.4 °F 81% 29.77 in 10.0 mi SSW 11.5 mph 23.0 mph 0.07 in Rain Light Rain
3:52 AM 42.8 °F 38.0 °F 39.2 °F 87% 29.78 in 10.0 mi SW 8.1 mph - 0.08 in Rain Light Rain
3:55 AM 42.8 °F 38.6 °F 39.2 °F 87% 29.78 in 10.0 mi SSW 6.9 mph - 0.08 in Rain Light Rain
4:12 AM 42.8 °F 38.0 °F 37.4 °F 81% 29.77 in 10.0 mi SSW 8.1 mph - N/A   Overcast
4:33 AM 41.0 °F 36.4 °F 37.4 °F 87% 29.77 in 10.0 mi SW 6.9 mph - N/A   Mostly Cloudy
4:52 AM 41.0 °F 37.1 °F 37.4 °F 87% 29.76 in 10.0 mi SSW 5.8 mph - N/A   Scattered Clouds
5:12 AM 41.0 °F 36.4 °F 37.4 °F 87% 29.76 in 10.0 mi SSW 6.9 mph - N/A Rain Light Rain
5:33 AM 42.8 °F 39.3 °F 37.4 °F 81% 29.75 in 10.0 mi SSW 5.8 mph - N/A   Mostly Cloudy
5:53 AM 42.8 °F 41.1 °F 37.4 °F 81% 29.75 in 10.0 mi SSW 3.5 mph - N/A   Overcast
6:12 AM 42.8 °F 39.3 °F 39.2 °F 87% 29.75 in 10.0 mi SSW 5.8 mph - N/A   Overcast
6:33 AM 42.8 °F - 39.2 °F 87% 29.75 in 10.0 mi Calm Calm - N/A   Overcast
6:52 AM 42.8 °F 41.1 °F 39.2 °F 87% 29.75 in 10.0 mi SSW 3.5 mph - N/A   Overcast
7:12 AM 42.8 °F 41.1 °F 39.2 °F 87% 29.75 in 10.0 mi SW 3.5 mph - N/A   Mostly Cloudy
7:33 AM 41.0 °F 39.0 °F 39.2 °F 93% 29.74 in 10.0 mi SSW 3.5 mph - N/A   Clear
7:53 AM 41.0 °F 39.0 °F 37.4 °F 87% 29.74 in 10.0 mi SSW 3.5 mph - N/A   Scattered Clouds
8:12 AM 41.0 °F 38.0 °F 39.2 °F 93% 29.74 in 10.0 mi SW 4.6 mph - N/A   Scattered Clouds
8:33 AM 41.0 °F 38.0 °F 39.2 °F 93% 29.74 in 10.0 mi SSW 4.6 mph - N/A   Clear
8:52 AM 41.0 °F 38.0 °F 39.2 °F 93% 29.74 in 10.0 mi SW 4.6 mph - N/A   Scattered Clouds
9:12 AM 42.8 °F 41.1 °F 39.2 °F 87% 29.74 in 10.0 mi SW 3.5 mph - N/A   Mostly Cloudy
9:33 AM 42.8 °F 41.1 °F 39.2 °F 87% 29.74 in 10.0 mi WSW 3.5 mph - N/A   Overcast
9:52 AM 42.8 °F 39.3 °F 39.2 °F 87% 29.74 in 10.0 mi SW 5.8 mph - N/A   Overcast
10:13 AM 44.6 °F 41.4 °F 41.0 °F 87% 29.73 in 10.0 mi SW 5.8 mph - N/A   Overcast
10:32 AM 44.6 °F 42.2 °F 41.0 °F 87% 29.72 in 10.0 mi SW 4.6 mph - N/A   Overcast
10:52 AM 44.6 °F 41.4 °F 41.0 °F 87% 29.72 in 7.0 mi West 5.8 mph - N/A   Overcast
11:13 AM 44.6 °F 42.2 °F 42.8 °F 93% 29.72 in 7.0 mi WSW 4.6 mph - N/A   Overcast
11:33 AM 44.6 °F 40.7 °F 42.8 °F 93% 29.73 in 7.0 mi West 6.9 mph - N/A   Overcast
11:52 AM 44.6 °F 40.7 °F 42.8 °F 93% 29.73 in 7.0 mi WSW 6.9 mph - N/A   Overcast
12:13 PM 44.6 °F 40.7 °F 42.8 °F 93% 29.73 in 7.0 mi West 6.9 mph - N/A   Overcast
12:32 PM 44.6 °F 42.2 °F 42.8 °F 93% 29.72 in 7.0 mi WSW 4.6 mph - N/A   Overcast
12:52 PM 46.4 °F 45.2 °F 42.8 °F 87% 29.71 in 10.0 mi WSW 3.5 mph - N/A   Overcast
1:13 PM 46.4 °F 42.9 °F 42.8 °F 87% 29.71 in 10.0 mi WSW 6.9 mph - N/A   Overcast
1:33 PM 46.4 °F 43.5 °F 42.8 °F 87% 29.71 in 10.0 mi WSW 5.8 mph - N/A   Overcast
1:52 PM 46.4 °F 44.3 °F 42.8 °F 87% 29.71 in 7.0 mi WSW 4.6 mph - N/A   Light Drizzle
2:13 PM 46.4 °F 44.3 °F 42.8 °F 87% 29.71 in 10.0 mi West 4.6 mph - N/A   Mostly Cloudy
2:33 PM 46.4 °F 44.3 °F 42.8 °F 87% 29.71 in 10.0 mi WSW 4.6 mph - N/A   Scattered Clouds
2:52 PM 46.4 °F 44.3 °F 42.8 °F 87% 29.71 in 10.0 mi WSW 4.6 mph - N/A   Scattered Clouds
3:13 PM 48.2 °F - 42.8 °F 82% 29.71 in 10.0 mi Calm Calm - N/A   Scattered Clouds
3:33 PM 48.2 °F - 42.8 °F 82% 29.71 in 10.0 mi West 4.6 mph - N/A   Scattered Clouds
3:52 PM 48.2 °F - 42.8 °F 82% 29.71 in 10.0 mi West 5.8 mph - N/A   Scattered Clouds
4:13 PM 46.4 °F 44.3 °F 42.8 °F 87% 29.71 in 10.0 mi WSW 4.6 mph - N/A   Scattered Clouds
4:33 PM 46.4 °F 44.3 °F 42.8 °F 87% 29.71 in 10.0 mi WSW 4.6 mph - N/A   Scattered Clouds
4:52 PM 48.2 °F - 42.8 °F 82% 29.71 in 10.0 mi WSW 3.5 mph - N/A   Clear
5:12 PM 48.2 °F - 42.8 °F 82% 29.71 in 10.0 mi West 4.6 mph - N/A   Clear
5:33 PM 48.2 °F - 42.8 °F 82% 29.71 in 10.0 mi WSW 4.6 mph - N/A   Clear
5:52 PM 46.4 °F 45.2 °F 42.8 °F 87% 29.72 in 10.0 mi WSW 3.5 mph - N/A   Clear
6:12 PM 44.6 °F 43.1 °F 42.8 °F 93% 29.73 in 10.0 mi SW 3.5 mph - N/A   Clear
6:33 PM 44.6 °F - 41.0 °F 87% 29.74 in 10.0 mi Calm Calm - N/A   Clear
6:52 PM 41.0 °F - 39.2 °F 93% 29.75 in 10.0 mi Calm Calm - N/A   Clear
7:12 PM 39.2 °F - 37.4 °F 93% 29.75 in 4.0 mi Calm Calm - N/A   Clear
7:33 PM 37.4 °F - 35.6 °F 93% 29.75 in 4.0 mi Calm Calm - N/A   Clear
7:52 PM 37.4 °F - 35.6 °F 93% 29.76 in 7.0 mi Calm Calm - N/A   Clear
8:12 PM 35.6 °F - 35.6 °F 100% 29.76 in 4.0 mi Calm Calm - N/A   Scattered Clouds
8:32 PM 33.8 °F - 33.8 °F 100% 29.76 in 5.0 mi Calm Calm - N/A   Scattered Clouds
8:52 PM 35.6 °F - 33.8 °F 93% 29.76 in 7.0 mi Calm Calm - N/A   Scattered Clouds
9:13 PM 33.8 °F 30.8 °F 32.0 °F 93% 29.77 in 7.0 mi WSW 3.5 mph - N/A   Scattered Clouds
9:32 PM 32.0 °F - 30.2 °F 93% 29.77 in 10.0 mi Calm Calm - N/A   Clear
9:53 PM 30.2 °F 26.7 °F 30.2 °F 100% 29.78 in 10.0 mi WSW 3.5 mph - N/A   Clear
10:13 PM 33.8 °F 30.8 °F 30.2 °F 87% 29.78 in 10.0 mi West 3.5 mph - N/A   Clear
10:32 PM 35.6 °F - 30.2 °F 81% 29.77 in 10.0 mi Calm Calm - N/A   Scattered Clouds
10:53 PM 33.8 °F 28.6 °F 30.2 °F 87% 29.78 in 10.0 mi West 5.8 mph - N/A   Overcast
11:13 PM 35.6 °F 31.7 °F 30.2 °F 81% 29.78 in 10.0 mi West 4.6 mph - N/A   Overcast
11:32 PM 35.6 °F 31.7 °F 30.2 °F 81% 29.79 in 10.0 mi West 4.6 mph - N/A   Overcast
11:53 PM 33.8 °F 30.8 °F 30.2 °F 87% 29.79 in 10.0 mi West 3.5 mph - N/A   Scattered Clouds